SKYSAT-C11 (42987 NORAD) Tracking and Keplerian Element Data

This shows tracking and keplerian element data for the satellite.

Feedback or suggestion? Click here.




ElementValue
Catalog42987
NameSKYSAT-C11
Epoch Orbit7263
Epoch Day52.89412045
Epoch Year2019
RAAN168.095
Inclination97.419
Eccentricity0.0007613
Argument of Perigee266.905
Mean Anonmoly93.1315
Mean Motion15.21577353
Decay Rate5.27E-06
L11 42987U 17068A 19052.89412045 .00000527 00000-0 26441-4 0 9997
L22 42987 97.4190 168.0950 0007613 266.9050 93.1315 15.21577353 72635

Live tracking and technical data element details for SKYSAT-C11 (NORAD 42987). SKYSAT-C11 can be tracked NOW for your location showing map with azimuth and elevation plus other details from your city location.

Track the satellite on the map from your city or location and see movement details for azimuth, elevation, latitude, longitude, range, height, and movement on the map or in text.







IsCatalogInMostPopularTable: catalog: 42987, numindb: 179
Update: records affected: 1



GetName: 42987 SKYSAT-C11

Hit Count: updated at: Fri, 22 Feb 2019 22:08:50 GMT